METEOR 2-17 DEB, 35366

Orbit data source: Space-Track

METEOR 2-17 DEB, 35366 is space debris in LEO originally from a launch on Sat, 30 Jan 1988 UTC launched from the Plesetsk Missile And Space Complex (PKMTR). Debris objects in space refer to the collection of defunct objects orbiting the Earth. Examples of debris include non-operational satellites, rocket bodies, and fragments generated from explosions, collisions, or faulty payload assembly.

Loading next visibility...
Identifier
35366, 1988-005AA
Orbit
LEO
Country
Flag of CISCIS
Related business
Manufacturer
Unknown
Mission
Spacecraft
Bus & Motor
Unknown
Mass
Unknown
Launch date (UTC)
1988-01-30 (38 years ago)
Launch vehicle
Unknown
Launch site
Plesetsk Missile And Space Complex (PKMTR)
Object type
Payload
Rocket body
Debris
Shape & HBR
Unknown shape, 0.1 m
Radar Cross Section
Small (<0.1 m²)

Expand to show TLE details & history
Last TLE update: 5 days ago

TLE from 5 days ago
0 METEOR 2-17 DEB
1 35366U 88005AA  25302.16276792  .00004048  00000-0  26185-2 0  9996
2 35366  82.5263  91.1528 0017004 170.7846   7.0366 14.02511101627364
Epoch: 2025-10-29T03:54Z
TLE epoch observation values (Epoch: 2025-10-29T03:54:23.148Z)
Latitude
2.03289°
Longitude
174.5511°
Altitude
875.539 km
Speed
7.421 km/s
True Right ascension
18h 03m 32s
True Declination
2° 01' 15"
Sunlit
Object was in daylight at epoch
Visualization orbit readout
Latitude
Unknown
Longitude
Unknown
Altitude
Unknown
Speed
Unknown
Apparent Right ascension
Unknown
Apparent Declination
Unknown
Sunlit
N/A
Visualization observer readout
Local Sidereal Time
07:35:10
Azimuth
Unknown
Elevation
Unknown
Doppler factor
Unknown
Orbital elements
Apogee altitude
894.586 km
Perigee altitude
869.894 km
Semi-major axis
7,260.377 km
Eccentricity
0.0017
Inclination
82.5263°
RAAN
91.1528°
Arg. of periapsis
170.7846°
True anomaly
7.06052°
Mean anomaly
7.0366°
Eccentric anomaly
7.04856°
Mean motion
3.50836 °/min
Orbital period
102.61 mins
BSTAR
0.0026185
Loading maneuver chart data...
Computing Atmospheric mass density...
Loading historical data...
Loading historical data...
Loading historical data...
Loading historical data...
Loading historical data...
Loading historical data...
Loading historical data...

Documentation

Showing up to 5 results
|